Powrót do katalogu

STARLINK-32578

AktywnyŁącznośćVLEO
NORAD 61979·PAYLOAD·🇺🇸 United States

Wystrzelony Nov 14, 2024 z Cape Canaveral Space Force Station

Loading…

Następne Przeloty (najbliższe 24 godziny)

TLE

ŚwieżeSource: CelesTrak SupGP

Epoka: Sep 14, 2026, 22:26 UTC

1 61979C 24210W   26257.93520833 -.00014886  00000+0 -53918-3 0  2570
2 61979  43.0020 190.8690 0001335 264.8180 140.1498 15.27584981    15

Śledź STARLINK-32578 w czasie rzeczywistym z AllMySat

Download on the App Store